Вернуться в каталог

IRIDE-MS2-HEO-5

АктивенНаукаSSO
NORAD 64571·PAYLOAD·🇮🇹 Italy

Запущен Jun 23, 2025 с Vandenberg Space Force Base

Loading…

Ближайшие Пролёты (ближайшие 24 часа)

TLE

СвежийSource: Space-Track

Эпоха: Sep 14, 2026, 22:19 UTC

1 64571U 25135AV  26257.93043696  .00001579  00000-0  16147-3 0  9995
2 64571  97.7801  10.9107 0002183  76.0206 284.1256 14.91955543 67265

Отслеживайте IRIDE-MS2-HEO-5 в реальном времени с AllMySat

Download on the App Store